Tracking 35331 objects as of 15-Sep-2026
HD Live streaming from Space Station
objects crossing your sky now

QIANFAN-28

Track QIANFAN-28 now!
10-day predictions
QIANFAN-28 is classified as:


NORAD ID: 61561
Int'l Code: 2024-185K
Launch date: October 15, 2024
Source: People's Republic of China (PRC)
Launch site: Taiyaun Space Center, China (TSC)
Your satellite tracking list
Your tracking list is empty




NASA's NSSDC Master Catalog

Two Line Element Set (TLE):
1 61561U 24185K   26258.60149833  .00000578  00000-0  22487-3 0  9992
2 61561  88.9858  44.5095 0009445  97.4742 262.7526 14.28482961109699
Source of the keplerian elements: AFSPC